Simultaneous Nadir Overpasses (SNOs) Predictions

Prediction of SNOs between GOES-17 and NOAA-19 Satellite Orbit:

Table of predicted SNOs for the next 14.0 days since TLE Epoch: 4/8/2023
Index Date Time (GOES-17) GOES-17 Lat,Lon NOAA-19 Lat,Lon Distance(km) Time Diff (sec)
1 04/10/2023 15:36:55 0.01,-104.76 0.66,-107.60 324.13 80
2 04/11/2023 15:27:36 0.01,-104.75 -0.02,-104.68 8.90 80
3 04/12/2023 15:15:36 0.01,-104.75 -0.70,-101.76 341.66 80
4 04/15/2023 03:35:57 -0.01,-104.69 -0.46,-106.58 216.31 80
5 04/16/2023 03:21:18 -0.01,-104.69 0.23,-103.66 116.81 80
6 04/17/2023 03:09:17 -0.01,-104.68 0.87,-100.73 450.07 80
7 04/18/2023 15:41:21 0.01,-104.72 0.86,-108.43 422.97 80
8 04/19/2023 15:29:22 0.01,-104.72 0.17,-105.51 89.58 80
9 04/20/2023 15:20:02 0.01,-104.72 -0.47,-102.58 243.94 80
